Wind_Speed
66 66 65 62 59 56 55 52 50 48 47 47 46 44 40 40 40 39 39 39 39 38 39 39 37 36 34 32 31 30 29 28 27 26 25 25 25 24 23 22 21 21 21 20
67 67 63 59 58 56 55 53 51 50 49 49 49 47 44 43 42 40 41 41 41 42 42 41 40 38 36 34 33 33 32 31 30 29 29 29 28 26 24 24 23 24 24 24
65 63 62 60 58 55 54 53 52 50 49 49 49 50 48 45 44 43 42 42 43 44 44 43 42 41 39 37 35 35 35 34 34 33 33 31 29 28 27 27 28 27 27 26
61 60 59 58 57 54 54 52 51 50 50 50 51 52 49 47 46 45 44 44 44 45 46 45 44 43 41 39 39 39 38 38 37 37 35 33 32 31 31 32 31 30 29 29
61 59 58 58 55 53 53 52 51 50 51 52 52 54 51 48 47 45 44 43 44 46 47 47 45 44 43 43 43 42 41 41 40 39 37 36 35 34 35 34 33 33 32 32
59 57 56 55 54 54 53 52 52 52 53 55 53 55 54 48 46 44 42 43 43 46 47 48 48 47 46 46 45 44 43 43 42 41 40 39 38 38 38 37 36 36 35 35
60 59 57 57 57 57 56 55 54 55 57 57 55 56 54 46 43 43 43 42 43 46 47 49 49 49 48 48 47 46 46 45 44 44 43 42 41 41 41 40 39 39 38 38
60 59 57 57 58 57 57 57 58 57 57 56 55 55 51 47 44 43 44 44 44 46 48 49 49 50 50 50 49 48 47 47 46 46 45 45 44 44 43 43 42 42 41 41
58 57 57 58 57 57 58 58 56 56 56 55 56 53 50 47 45 44 44 45 46 46 48 49 50 50 51 51 51 50 49 49 49 48 48 48 47 47 46 46 46 45 44 44
59 59 57 58 59 59 58 56 56 56 55 56 56 52 48 46 45 44 44 45 45 46 48 48 49 50 51 51 51 51 51 51 50 50 50 49 49 49 49 48 48 47 47 47
59 59 58 59 59 57 58 59 58 57 57 56 55 51 47 47 46 44 44 44 44 45 46 46 47 49 50 51 52 52 52 52 52 52 51 51 51 51 51 50 50 50 50 50
60 60 59 58 56 56 56 56 56 57 57 57 55 49 46 46 45 44 44 44 44 44 45 46 47 48 49 50 51 51 52 53 53 53 53 52 52 52 53 52 52 52 52 52
58 59 60 61 60 59 58 57 56 55 55 55 55 48 45 45 45 44 43 43 42 42 43 45 47 48 49 50 50 51 51 53 53 54 54 54 53 53 53 54 54 54 54 54
56 58 59 59 56 55 55 55 55 56 56 56 54 48 46 44 44 44 43 43 43 43 43 44 46 47 49 49 50 50 51 52 53 54 54 54 54 54 54 55 55 55 55 55
55 56 56 55 55 53 51 51 51 52 52 52 50 48 44 44 43 44 44 44 44 43 43 44 44 46 48 50 50 51 51 51 52 53 54 54 55 55 55 55 55 55 55 55
52 52 53 53 54 54 54 52 50 49 49 50 50 49 44 46 46 46 45 45 45 44 44 44 44 46 47 49 50 50 50 51 52 53 54 54 54 55 55 55 55 55 55 55
51 51 51 51 52 53 55 52 51 50 50 50 50 44 44 47 47 46 45 46 46 46 45 45 45 46 47 48 49 50 51 51 52 52 53 54 54 54 55 55 55 54 55 55
46 47 47 49 50 54 49 47 48 49 48 47 48 46 46 46 46 46 46 46 46 47 47 46 46 46 48 48 48 49 50 51 51 51 52 52 53 54 54 54 55 55 55 55
45 45 46 48 49 50 47 46 45 47 47 46 47 47 47 47 49 47 45 45 45 45 46 46 46 46 47 48 49 50 50 51 51 52 52 53 53 54 55 55 55 55 55 55
45 46 47 48 49 49 44 44 44 45 47 44 46 46 47 48 49 45 42 44 45 46 46 46 46 46 46 47 48 50 51 51 51 52 53 53 53 53 54 54 54 54 55 56
47 47 47 47 47 45 44 44 45 46 42 40 42 43 45 46 46 44 44 45 46 46 46 46 46 46 47 47 48 48 49 50 51 51 51 52 52 53 53 54 54 54 55 55
46 47 46 46 47 45 44 45 45 41 40 41 40 40 42 43 44 44 45 45 44 45 46 46 46 46 47 48 48 48 49 50 51 51 51 51 51 52 52 53 54 54 54 55
46 45 45 44 42 41 41 41 39 39 39 40 40 40 40 41 42 43 44 44 44 44 45 46 46 46 47 48 48 49 50 51 51 52 53 53 53 53 53 54 54 55 55 56
45 45 44 44 44 42 40 39 39 39 39 40 41 41 40 41 42 43 43 43 43 43 43 44 45 46 47 47 48 49 50 51 52 52 53 53 54 54 54 55 56 56 57 58
43 42 42 43 42 42 42 42 41 40 41 42 42 43 42 42 42 43 43 43 43 43 43 43 44 45 46 47 47 48 49 50 51 52 53 54 54 55 55 56 57 58 59 60
45 44 43 43 42 42 42 42 42 42 43 44 44 45 45 44 44 44 44 44 44 44 44 44 44 45 46 47 48 48 49 50 51 53 54 54 55 56 57 58 58 59 60 60
Wind_Direction
226 227 229 230 232 233 234 235 236 237 237 238 239 238 234 235 235 233 234 233 232 230 229 230 230 229 229 228 228 228 228 229 230 231 232 233 234 236 239 242 245 249 253 257
225 228 230 231 231 232 234 235 236 237 237 238 239 239 236 235 235 235 235 234 232 230 231 231 231 231 231 230 230 230 231 232 232 233 234 235 238 241 244 246 249 252 255 259
229 230 229 229 230 231 233 235 236 237 238 239 240 240 237 236 237 236 237 236 234 232 232 232 232 233 232 232 232 233 234 235 235 236 237 239 242 245 247 248 250 253 257 262
225 226 228 229 230 232 234 235 236 237 237 238 240 241 237 237 238 238 238 238 237 235 234 234 233 234 234 234 234 235 235 236 237 239 240 241 243 245 247 249 253 257 260 263
224 225 225 227 229 230 232 233 234 235 237 238 239 242 238 237 238 240 240 240 239 237 236 236 235 235 235 235 236 237 238 238 240 241 242 243 244 246 249 252 255 258 261 263
222 223 223 224 224 226 228 230 232 234 236 238 238 242 241 238 240 241 242 243 242 240 238 237 237 237 237 238 238 239 240 241 242 243 244 245 246 248 250 253 256 259 261 264
218 220 220 220 221 223 225 227 230 232 235 238 239 242 243 241 240 242 243 244 243 241 240 239 240 239 239 240 241 241 242 242 244 245 246 247 248 249 251 254 257 259 262 264
220 220 220 221 223 225 227 228 230 233 237 241 241 243 245 245 243 243 243 243 244 243 241 241 241 241 241 241 242 243 243 244 245 246 247 248 249 251 253 255 258 260 262 265
221 224 223 222 222 224 225 227 230 234 237 239 241 243 245 246 246 245 244 243 243 244 244 242 241 242 242 242 242 243 244 245 246 247 248 249 250 252 254 256 258 260 263 265
220 222 221 222 222 223 225 227 230 233 236 239 242 243 244 245 247 246 246 244 244 244 245 244 243 242 242 243 243 244 244 245 247 248 249 250 252 253 255 257 259 261 263 265
220 221 222 223 224 226 226 227 229 233 236 239 242 243 244 245 245 246 246 245 244 245 244 245 244 243 243 243 244 245 246 247 248 249 250 251 252 254 255 257 259 261 263 265
220 221 224 226 227 228 230 232 234 236 238 240 243 242 243 244 246 246 246 247 246 246 245 244 244 243 243 243 244 245 246 248 249 249 251 252 253 255 256 257 259 261 263 265
221 222 224 226 226 227 229 231 233 236 240 241 243 240 241 244 246 247 247 248 248 247 247 245 244 244 243 243 244 245 247 248 249 250 251 252 254 255 257 258 259 261 263 265
224 226 227 229 230 231 232 233 234 235 237 239 240 239 239 241 245 248 250 250 249 248 248 248 247 245 243 243 244 246 247 248 249 251 252 253 254 256 257 258 260 261 263 265
224 227 229 231 234 236 237 238 239 241 242 243 242 241 239 243 246 248 249 250 250 248 248 249 249 247 245 244 244 246 247 249 250 251 252 253 255 256 257 259 260 261 263 265
223 227 229 231 234 236 237 236 237 239 241 243 242 239 238 242 245 247 248 249 250 249 249 249 250 249 247 246 245 246 248 249 250 251 252 253 255 256 257 258 259 261 262 264
225 226 228 231 233 235 236 235 238 240 242 243 243 241 241 243 246 248 249 249 249 249 249 249 249 250 249 248 247 247 248 249 250 251 252 253 254 256 257 258 259 261 262 264
222 225 228 231 233 236 235 236 240 242 242 243 244 242 242 245 247 247 248 250 250 250 250 250 250 250 250 250 250 249 249 249 250 250 252 253 255 255 257 258 259 261 263 264
218 222 225 229 233 236 234 236 239 241 242 243 244 244 246 248 249 248 249 250 250 250 250 250 250 251 251 251 251 250 250 250 251 251 253 254 255 257 257 258 259 261 263 265
218 220 223 227 231 234 235 236 237 240 241 240 243 244 247 249 250 249 250 250 249 249 250 251 251 251 251 252 252 252 251 252 253 253 254 255 256 257 258 259 260 262 264 265
220 221 224 228 232 235 235 238 238 240 243 243 242 244 246 249 251 250 249 249 249 249 250 251 251 251 251 252 253 253 253 254 254 255 256 257 258 259 260 261 262 263 265 266
225 227 229 231 234 236 238 240 241 243 244 245 244 244 246 248 250 251 251 251 250 251 251 252 252 253 253 253 253 253 253 254 255 256 257 258 260 261 262 263 263 264 266 267
225 227 231 235 238 240 242 244 244 244 245 246 246 245 246 248 249 250 251 252 252 252 252 252 253 253 253 253 254 254 255 255 256 257 258 259 260 261 262 263 264 265 267 268
227 228 231 232 233 236 239 240 242 242 242 243 245 246 246 247 248 249 250 251 252 253 253 253 253 254 254 254 255 256 257 257 258 259 259 260 261 262 263 263 265 266 268 269
227 229 231 233 234 236 237 239 239 240 240 241 242 244 245 246 247 248 250 251 252 253 253 253 254 255 255 256 257 257 258 259 260 260 261 262 262 263 264 265 266 267 268 270
228 229 230 232 233 235 236 238 240 241 242 242 243 244 245 247 248 250 251 253 254 255 255 255 256 256 257 258 259 259 260 260 261 261 262 263 264 265 266 267 268 269 270 271
Height
5717 5726 5735 5746 5754 5760 5766 5772 5777 5783 5787 5790 5794 5800 5806 5809 5812 5816 5819 5823 5827 5830 5832 5834 5837 5839 5842 5845 5848 5851 5853 5855 5857 5859 5861 5862 5863 5864 5866 5867 5868 5868 5869 5869
5706 5716 5731 5737 5743 5749 5756 5763 5768 5773 5778 5782 5785 5791 5797 5801 5805 5810 5813 5816 5820 5823 5825 5828 5831 5834 5838 5841 5843 5846 5848 5850 5852 5854 5855 5857 5858 5860 5861 5862 5863 5863 5863 5864
5700 5714 5720 5726 5733 5740 5747 5755 5760 5765 5769 5772 5777 5782 5788 5794 5798 5802 5806 5809 5812 5815 5818 5821 5824 5828 5831 5835 5838 5840 5842 5844 5846 5848 5849 5852 5854 5855 5857 5857 5857 5857 5858 5858
5689 5700 5709 5716 5725 5733 5740 5747 5751 5755 5759 5763 5767 5771 5781 5786 5790 5794 5799 5802 5805 5809 5811 5814 5818 5822 5826 5829 5831 5833 5835 5837 5840 5841 5844 5846 5848 5849 5850 5850 5851 5851 5852 5852
5679 5689 5698 5706 5717 5724 5730 5736 5741 5745 5748 5752 5757 5761 5771 5777 5782 5787 5791 5794 5797 5801 5804 5807 5811 5815 5818 5821 5823 5826 5828 5830 5833 5835 5838 5839 5841 5843 5843 5844 5845 5845 5845 5845
5670 5680 5689 5699 5707 5713 5719 5725 5730 5733 5736 5741 5749 5751 5760 5770 5777 5781 5784 5786 5789 5792 5795 5799 5802 5806 5809 5812 5815 5817 5820 5823 5825 5827 5830 5832 5834 5835 5835 5836 5837 5837 5837 5837
5657 5667 5677 5687 5693 5699 5707 5714 5718 5720 5723 5731 5739 5739 5752 5764 5769 5772 5775 5778 5780 5782 5786 5790 5793 5797 5801 5804 5807 5809 5812 5815 5817 5819 5822 5824 5825 5826 5827 5828 5828 5829 5829 5829
5649 5658 5669 5677 5683 5691 5699 5704 5709 5713 5717 5724 5728 5732 5747 5755 5759 5762 5765 5768 5770 5772 5776 5779 5783 5787 5790 5794 5797 5800 5803 5806 5808 5810 5812 5814 5816 5817 5818 5819 5819 5819 5820 5820
5644 5653 5661 5668 5675 5683 5687 5692 5700 5703 5707 5712 5716 5727 5738 5744 5748 5751 5754 5756 5759 5762 5765 5768 5772 5776 5779 5783 5787 5790 5793 5795 5798 5800 5802 5804 5806 5807 5809 5809 5809 5810 5810 5810
5636 5642 5650 5656 5663 5669 5677 5684 5687 5691 5697 5701 5708 5717 5729 5735 5737 5740 5742 5745 5748 5751 5754 5757 5760 5764 5768 5772 5775 5778 5781 5785 5787 5789 5791 5793 5795 5797 5798 5798 5799 5799 5800 5799
5627 5634 5640 5646 5653 5662 5668 5672 5677 5682 5687 5693 5699 5711 5720 5723 5725 5728 5731 5733 5736 5739 5742 5746 5749 5753 5756 5760 5764 5767 5770 5773 5776 5778 5780 5782 5784 5785 5786 5787 5788 5788 5788 5788
5616 5623 5630 5639 5647 5652 5658 5664 5670 5674 5679 5685 5689 5702 5708 5711 5713 5717 5720 5723 5725 5728 5731 5734 5737 5741 5744 5748 5752 5755 5758 5761 5764 5766 5768 5770 5772 5773 5774 5775 5776 5776 5776 5776
5607 5613 5618 5624 5633 5639 5645 5653 5660 5665 5669 5673 5679 5694 5698 5700 5702 5705 5708 5711 5713 5716 5719 5722 5725 5729 5732 5736 5740 5743 5746 5749 5751 5753 5756 5758 5759 5761 5762 5763 5763 5763 5763 5763
5599 5604 5611 5618 5626 5634 5639 5645 5649 5652 5656 5662 5671 5683 5687 5690 5692 5694 5697 5699 5701 5704 5707 5711 5714 5717 5720 5724 5727 5730 5733 5736 5739 5741 5743 5745 5747 5748 5749 5749 5750 5750 5750 5750
5587 5594 5602 5611 5617 5624 5629 5635 5639 5643 5649 5655 5664 5670 5678 5680 5682 5683 5685 5687 5689 5693 5696 5699 5702 5705 5708 5711 5715 5718 5721 5723 5726 5728 5730 5732 5733 5734 5735 5736 5736 5737 5737 5737
5578 5586 5593 5599 5605 5610 5615 5621 5626 5632 5639 5645 5651 5658 5668 5668 5669 5671 5673 5675 5678 5681 5684 5687 5689 5693 5696 5699 5702 5705 5708 5710 5712 5714 5716 5718 5720 5721 5722 5722 5723 5723 5723 5723
5570 5578 5584 5589 5594 5597 5601 5612 5618 5624 5630 5636 5640 5651 5655 5655 5657 5660 5661 5663 5666 5670 5673 5675 5677 5680 5684 5686 5689 5692 5695 5697 5699 5701 5703 5704 5706 5707 5708 5709 5709 5710 5710 5709
5560 5567 5573 5578 5583 5585 5600 5607 5610 5615 5621 5626 5631 5638 5641 5643 5644 5646 5649 5652 5655 5658 5661 5663 5665 5668 5671 5674 5677 5679 5682 5684 5686 5688 5689 5691 5692 5693 5694 5695 5696 5696 5696 5695
5550 5556 5562 5567 5571 5578 5589 5596 5601 5604 5609 5617 5620 5625 5627 5629 5629 5635 5640 5641 5644 5646 5649 5652 5654 5657 5659 5662 5665 5667 5669 5671 5673 5674 5676 5677 5678 5679 5680 5681 5682 5682 5682 5681
5540 5546 5553 5558 5562 5569 5584 5588 5590 5593 5597 5607 5609 5613 5615 5616 5618 5626 5629 5629 5631 5634 5637 5640 5642 5645 5647 5650 5652 5654 5657 5658 5660 5661 5662 5663 5664 5665 5666 5667 5667 5667 5667 5667
5530 5535 5542 5549 5553 5563 5573 5576 5578 5583 5594 5597 5598 5601 5603 5605 5609 5614 5614 5616 5619 5622 5625 5628 5630 5633 5635 5637 5640 5642 5644 5645 5646 5647 5649 5650 5651 5652 5652 5653 5653 5653 5653 5653
5523 5529 5534 5540 5545 5557 5562 5565 5569 5577 5581 5583 5587 5590 5592 5595 5597 5600 5602 5604 5607 5610 5613 5616 5618 5621 5623 5625 5627 5629 5630 5631 5632 5634 5636 5637 5637 5638 5639 5639 5639 5639 5638 5638
5514 5522 5528 5535 5544 5549 5552 5557 5561 5566 5569 5572 5575 5578 5581 5583 5586 5588 5591 5593 5595 5598 5601 5604 5606 5608 5610 5612 5614 5615 5616 5618 5619 5620 5622 5622 5623 5624 5624 5624 5624 5624 5624 5623
5506 5512 5518 5525 5532 5537 5541 5545 5549 5553 5557 5560 5563 5567 5570 5572 5575 5577 5580 5582 5584 5587 5589 5591 5593 5595 5597 5599 5600 5602 5603 5604 5605 5607 5607 5608 5609 5609 5609 5609 5609 5609 5608 5607
5497 5502 5508 5514 5521 5525 5529 5534 5538 5541 5545 5548 5552 5555 5558 5560 5563 5566 5568 5570 5573 5575 5577 5579 5581 5583 5584 5586 5587 5589 5590 5591 5592 5592 5593 5593 5594 5594 5594 5594 5594 5593 5593 5592
5487 5493 5499 5506 5513 5516 5521 5524 5527 5530 5534 5537 5540 5543 5546 5549 5552 5554 5557 5559 5561 5563 5565 5567 5569 5570 5572 5573 5574 5575 5576 5577 5578 5578 5579 5579 5579 5579 5579 5578 5578 5577 5576 5575